| time (UTC) | temp F | wind direction | speed knots | gust knots | rain 1hr in | rain 24hr in | rain mn in | humidity % | barometer mb |
| 20260902204515 | 89 | 135 | 0.9 | 3.5 | 0.00 | 0.00 | 0.00 | 71 | 1017.5 |
| 20260902203015 | 90 | 113 | 1.7 | 5.2 | 0.00 | 0.00 | 0.00 | 69 | 1018.1 |
| 20260902201515 | 91 | 0.0 | 2.6 | 0.00 | 0.00 | 0.00 | 66 | 1017.8 | |
| 20260902200016 | 91 | 0.0 | 2.6 | 0.00 | 0.00 | 0.00 | 64 | 1017.9 | |
| 20260902194535 | 91 | 0.0 | 3.5 | 0.00 | 0.00 | 0.00 | 64 | 1017.5 | |
| 20260902193015 | 92 | 203 | 0.9 | 3.5 | 0.00 | 0.00 | 0.00 | 64 | 1017.2 |
| 20260902191515 | 92 | 23 | 0.9 | 2.6 | 0.00 | 0.00 | 0.00 | 63 | 1017.3 |
| 20260902190016 | 92 | 0.0 | 1.7 | 0.00 | 0.00 | 0.00 | 64 | 1017.5 | |
| 20260902184515 | 92 | 180 | 0.9 | 2.6 | 0.00 | 0.00 | 0.00 | 62 | 1017.5 |
| 20260902183015 | 92 | 180 | 0.9 | 4.3 | 0.00 | 0.00 | 0.00 | 60 | 1017.7 |
| 20260902181555 | 92 | 270 | 0.9 | 3.5 | 0.00 | 0.00 | 0.00 | 62 | 1017.7 |
| 20260902180015 | 92 | 135 | 0.9 | 5.2 | 0.00 | 0.00 | 0.00 | 62 | 1017.9 |
| 20260902174518 | 92 | 270 | 0.9 | 5.2 | 0.00 | 0.00 | 0.00 | 61 | 1018.1 |
| 20260902173015 | 92 | 293 | 0.9 | 3.5 | 0.00 | 0.00 | 0.00 | 63 | 1018.0 |
| 20260902171515 | 92 | 270 | 0.9 | 2.6 | 0.00 | 0.00 | 0.00 | 62 | 1018.0 |
| 20260902170017 | 92 | 158 | 0.9 | 2.6 | 0.00 | 0.00 | 0.00 | 62 | 1018.0 |
| 20260902164517 | 92 | 158 | 0.9 | 2.6 | 0.00 | 0.00 | 0.00 | 60 | 1018.2 |
| 20260902163017 | 93 | 23 | 0.9 | 1.7 | 0.00 | 0.00 | 0.00 | 61 | 1018.1 |
| 20260902161517 | 93 | 293 | 0.9 | 2.6 | 0.00 | 0.00 | 0.00 | 59 | 1018.2 |
| 20260902160037 | 92 | 158 | 0.9 | 1.7 | 0.00 | 0.00 | 0.00 | 63 | 1018.3 |
| 20260902154517 | 92 | 158 | 0.9 | 2.6 | 0.00 | 0.00 | 0.00 | 64 | 1018.5 |
| 20260902153017 | 91 | 315 | 0.9 | 2.6 | 0.00 | 0.00 | 0.00 | 65 | 1018.4 |
| 20260902151517 | 89 | 158 | 0.9 | 3.5 | 0.00 | 0.00 | 0.00 | 68 | 1018.5 |
| 20260902150017 | 87 | 0.0 | 1.7 | 0.00 | 0.00 | 0.00 | 72 | 1018.5 | |
| 20260902144517 | 85 | 0.0 | 1.7 | 0.00 | 0.00 | 0.00 | 76 | 1018.6 | |
| 20260902143057 | 83 | 0.0 | 1.7 | 0.00 | 0.00 | 0.00 | 78 | 1018.6 | |
| 20260902141517 | 82 | 180 | 0.9 | 3.5 | 0.00 | 0.00 | 0.00 | 79 | 1018.4 |
| 20260902140017 | 81 | 315 | 0.9 | 2.6 | 0.00 | 0.00 | 0.00 | 82 | 1018.3 |
| 20260902134537 | 80 | 0.0 | 1.7 | 0.00 | 0.00 | 0.00 | 85 | 1018.2 | |
| 20260902133017 | 78 | 0.0 | 0.9 | 0.00 | 0.00 | 0.00 | 87 | 1018.2 | |
| 20260902131517 | 77 | 0.0 | 0.9 | 0.00 | 0.00 | 0.00 | 88 | 1018.1 | |
| 20260902130017 | 76 | 0.0 | 1.7 | 0.00 | 0.00 | 0.00 | 89 | 1018.0 | |
| 20260902124517 | 76 | 0.0 | 2.6 | 0.00 | 0.00 | 0.00 | 91 | 1017.9 | |
| 20260902123016 | 75 | 0.0 | 1.7 | 0.00 | 0.00 | 0.00 | 92 | 1017.8 | |
| 20260902121517 | 75 | 0.0 | 1.7 | 0.00 | 0.00 | 0.00 | 92 | 1017.9 | |
| 20260902120016 | 75 | 0.0 | 0.9 | 0.00 | 0.00 | 0.00 | 92 | 1018.0 | |
| 20260902114516 | 75 | 0.0 | 0.0 | 0.00 | 0.00 | 0.00 | 91 | 1017.9 | |
| 20260902113016 | 75 | 0.0 | 0.0 | 0.00 | 0.00 | 0.00 | 91 | 1017.9 | |
| 20260902111516 | 75 | 0.0 | 0.0 | 0.00 | 0.00 | 0.00 | 91 | 1017.9 | |
| 20260902110016 | 75 | 0.0 | 0.0 | 0.00 | 0.00 | 0.00 | 91 | 1017.8 | |
| 20260902104536 | 75 | 0.0 | 0.0 | 0.00 | 0.00 | 0.00 | 92 | 1017.6 | |
| 20260902103016 | 75 | 0.0 | 0.0 | 0.00 | 0.00 | 0.00 | 92 | 1017.6 | |
| 20260902101516 | 75 | 0.0 | 0.9 | 0.00 | 0.00 | 0.00 | 92 | 1017.5 | |
| 20260902100016 | 75 | 0.0 | 0.9 | 0.00 | 0.00 | 0.00 | 93 | 1017.3 | |
| 20260902094516 | 75 | 0.0 | 0.0 | 0.00 | 0.00 | 0.00 | 93 | 1017.3 | |
| 20260902093016 | 74 | 0.0 | 0.0 | 0.00 | 0.00 | 0.00 | 93 | 1017.1 | |
| 20260902091516 | 74 | 0.0 | 0.9 | 0.00 | 0.00 | 0.00 | 93 | 1017.1 | |
| 20260902090036 | 74 | 0.0 | 0.0 | 0.00 | 0.00 | 0.00 | 93 | 1017.2 | |
| 20260902084516 | 74 | 0.0 | 0.9 | 0.00 | 0.00 | 0.00 | 92 | 1017.3 | |
| 20260902083016 | 74 | 0.0 | 0.9 | 0.00 | 0.00 | 0.00 | 92 | 1017.3 | |
| 20260902081536 | 74 | 0.0 | 0.9 | 0.00 | 0.00 | 0.00 | 92 | 1017.2 | |
| 20260902080016 | 74 | 0.0 | 0.0 | 0.00 | 0.00 | 0.00 | 91 | 1017.1 | |
| 20260902074556 | 74 | 0.0 | 0.0 | 0.00 | 0.00 | 0.00 | 91 | 1017.0 | |
| 20260902073016 | 74 | 0.0 | 0.0 | 0.00 | 0.00 | 0.00 | 91 | 1017.0 | |
| 20260902071516 | 74 | 0.0 | 0.0 | 0.00 | 0.00 | 0.00 | 90 | 1017.1 | |
| 20260902070016 | 75 | 0.0 | 0.0 | 0.00 | 0.00 | 0.00 | 90 | 1017.0 | |
| 20260902064536 | 75 | 0.0 | 0.0 | 0.00 | 0.00 | 0.00 | 89 | 1017.0 | |
| 20260902063016 | 75 | 0.0 | 0.0 | 0.00 | 0.00 | 0.00 | 89 | 1016.8 | |
| 20260902061516 | 75 | 0.0 | 0.9 | 0.00 | 0.00 | 0.00 | 89 | 1016.9 | |
| 20260902060036 | 76 | 0.0 | 0.9 | 0.00 | 0.00 | 0.00 | 89 | 1016.8 | |
| 20260902054515 | 76 | 0.0 | 0.0 | 0.00 | 0.00 | 0.00 | 89 | 1016.6 | |
| 20260902053016 | 76 | 0.0 | 0.0 | 0.00 | 0.00 | 0.00 | 89 | 1016.7 | |
| 20260902051536 | 76 | 0.0 | 0.9 | 0.00 | 0.00 | 0.00 | 89 | 1016.7 | |
| 20260902050016 | 77 | 0.0 | 0.0 | 0.00 | 0.00 | 0.00 | 89 | 1017.0 | |
| 20260902044515 | 77 | 0.0 | 0.9 | 0.00 | 0.00 | 0.00 | 89 | 1017.0 | |
| 20260902043016 | 77 | 0.0 | 0.9 | 0.00 | 0.00 | 0.00 | 88 | 1016.6 | |
| 20260902041515 | 77 | 0.0 | 0.0 | 0.00 | 0.00 | 0.00 | 87 | 1016.5 | |
| 20260902040015 | 78 | 0.0 | 0.0 | 0.00 | 0.00 | 0.00 | 87 | 1016.4 | |
| 20260902034516 | 78 | 0.0 | 0.0 | 0.00 | 0.00 | 0.00 | 87 | 1016.3 | |
| 20260902033016 | 78 | 0.0 | 0.0 | 0.00 | 0.00 | 0.00 | 87 | 1016.0 | |
| 20260902031516 | 78 | 0.0 | 0.0 | 0.00 | 0.00 | 0.00 | 85 | 1016.0 | |
| 20260902030036 | 79 | 0.0 | 0.0 | 0.00 | 0.00 | 0.00 | 84 | 1016.0 | |
| 20260902024536 | 79 | 0.0 | 0.0 | 0.00 | 0.00 | 0.00 | 84 | 1016.0 | |
| 20260902023016 | 80 | 0.0 | 0.0 | 0.00 | 0.00 | 0.00 | 84 | 1016.1 | |
| 20260902021516 | 80 | 0.0 | 0.0 | 0.00 | 0.00 | 0.00 | 84 | 1016.1 | |
| 20260902020016 | 80 | 0.0 | 0.0 | 0.00 | 0.00 | 0.00 | 83 | 1016.0 | |
| 20260902014516 | 81 | 0.0 | 0.0 | 0.00 | 0.00 | 0.00 | 83 | 1015.8 | |
| 20260902013036 | 81 | 0.0 | 0.0 | 0.00 | 0.00 | 0.00 | 83 | 1015.6 | |
| 20260902011516 | 82 | 0.0 | 0.0 | 0.00 | 0.00 | 0.00 | 82 | 1015.4 | |
| 20260902010016 | 82 | 0.0 | 0.0 | 0.00 | 0.00 | 0.00 | 82 | 1015.2 | |
| 20260902004556 | 83 | 0.0 | 0.0 | 0.00 | 0.00 | 0.00 | 80 | 1015.0 | |
| 20260902003016 | 84 | 0.0 | 0.0 | 0.00 | 0.00 | 0.00 | 80 | 1014.9 | |
| 20260902001516 | 85 | 0.0 | 0.0 | 0.00 | 0.00 | 0.00 | 78 | 1014.9 | |
| 20260902000016 | 85 | 0.0 | 0.0 | 0.00 | 0.00 | 0.00 | 77 | 1014.9 | |
| 20260901234536 | 86 | 0.0 | 0.0 | 0.00 | 0.00 | 0.00 | 76 | 1014.9 | |
| 20260901233056 | 87 | 0.0 | 0.0 | 0.00 | 0.00 | 0.00 | 73 | 1015.0 | |
| 20260901231536 | 88 | 0.0 | 0.0 | 0.00 | 0.00 | 0.00 | 71 | 1015.0 | |
| 20260901230016 | 89 | 0.0 | 0.0 | 0.00 | 0.00 | 0.00 | 70 | 1015.2 | |
| 20260901224515 | 89 | 0.0 | 0.0 | 0.00 | 0.00 | 0.00 | 67 | 1015.2 | |
| 20260901223016 | 90 | 0.0 | 0.0 | 0.00 | 0.00 | 0.00 | 64 | 1015.3 | |
| 20260901221516 | 90 | 0.0 | 0.0 | 0.00 | 0.00 | 0.00 | 63 | 1015.4 | |
| 20260901220016 | 91 | 0.0 | 0.0 | 0.00 | 0.00 | 0.00 | 62 | 1015.4 | |
| 20260901214515 | 91 | 0.0 | 0.0 | 0.00 | 0.00 | 0.00 | 62 | 1015.5 | |
| 20260901213015 | 91 | 0.0 | 0.9 | 0.00 | 0.00 | 0.00 | 59 | 1015.5 | |
| 20260901211515 | 92 | 0.0 | 1.7 | 0.00 | 0.00 | 0.00 | 58 | 1015.5 | |
| 20260901210015 | 92 | 0.0 | 1.7 | 0.00 | 0.00 | 0.00 | 58 | 1015.7 |